Voltar ao catálogo

INTELSAT 804

AtivoComunicaçõesGEO
NORAD 25110·PAYLOAD· XX

Lançado Dec 21, 1997 de Guiana Space Centre

Loading…

TLE

AtualizadoSource: Space-Track

Época: Sep 14, 2026, 14:00 UTC

1 25110U 97083A   26257.58350339 -.00000103  00000-0  00000-0 0  9999
2 25110  13.2416  16.9373 0006573  29.0375 321.4947  1.00271319105228

Acompanhe INTELSAT 804 em tempo real com AllMySat

Download on the App Store